Find Kosmos-1704

NORAD ID: 16291 Int'l Des: 1985-110 Owner: VMF Country: SU operational
LEOCIRCULARPOLAR

Aktuelle Ansicht

3D-Globus wird geladen...

Über Kosmos-1704

Beschreibung wird geladen...

Nächste Überflüge

Passes for default location (London). Set your location on the main map for personalized predictions.

Höhenverlauf

Loading altitude history...

Zweizeiliger Elementsatz

1 16291U 85110A 26149.52810198 .00000052 00000-0 38145-4 0 9992
2 16291 82.9335 138.5810 0032225 108.8307 11.9132 13.74887910 31366
Epoch: 29. Mai 2026 • Age: 12 hours

Aktueller Status

Höhe 971.6 km
Geschwindigkeit 7.37 km/s
Subsatellitenpunkt 14.53°N, 52.07°E
Startdatum 28. Nov. 1985
Alter 40.5 years
Typ other

Technische Details

Klassifizierung Payload
Masse 800.00 kg
Trockenmasse 800.00 kg
Gesamtmasse 800.00 kg
Länge 5.00 m
Durchmesser 2.10 m
Spannweite 17.00 m
Form Cyl + Ant
Hersteller OAZ
Bus-Typ KAUR-1 11F627
Phasenstatus In Orbit
Besitzer/Staat VMF/SU

Most Searched